Location: Caltech
(34.1382°N, 118.1253°W)
Time: 11:46:24
(UTC-07:00)

Sapphire - Visible Passes

Search period start: 30 August 2016 00:00
Search period end: 09 September 2016 00:00
Orbit: 787 x 795 km, 67.1° (Epoch: 30 August)

Date Brightness Start Highest point End Pass type
(mag) Time Alt. Az. Time Alt. Az. Time Alt. Az.
30 Aug ? 21:10:29 10° NNW 21:15:55 84° WSW 21:17:19 51° SSE visible
31 Aug ? 20:39:53 10° NNW 20:45:18 69° ENE 20:47:58 30° SE visible
31 Aug ? 22:25:53 10° W 22:28:01 12° WSW 22:28:44 12° WSW visible
01 Sep ? 20:09:22 10° NNW 20:14:37 49° ENE 20:18:43 16° SE visible
01 Sep ? 21:53:58 10° WNW 21:57:35 18° WSW 21:59:30 15° SW visible
02 Sep ? 19:38:57 10° N 19:43:54 35° ENE 19:48:49 10° ESE visible
02 Sep ? 21:22:40 10° NW 21:27:06 26° WSW 21:30:22 15° SSW visible
03 Sep ? 20:51:38 10° NW 20:56:36 37° WSW 21:01:23 11° S visible
04 Sep ? 20:20:47 10° NW 20:26:03 54° WSW 20:31:17 10° S visible
05 Sep ? 19:50:03 10° NNW 19:55:28 77° WSW 20:00:51 10° SSE visible
06 Sep ? 21:06:05 10° W 21:07:31 11° WSW 21:08:55 10° WSW visible
07 Sep ? 20:33:45 10° WNW 20:37:05 17° WSW 20:40:23 10° SW visible
08 Sep ? 20:02:21 10° NW 20:06:37 24° WSW 20:10:51 10° SSW visible
